Погода в Красном

Россия / Республика Адыгея     44°52′27″N   39°27′18″E
темп.,
°C
ветер,
м/с
пор.,
м/с
влажн.,
%
обл.,
%
осадки,
мм/ч
давл.,
гПа
погр.,
м
18 мая, вт
вт1800:00+14юз2588100 0.0 1011239
03:00+14юз4108753 0.0 1011447
06:00+14ююз2589100 0.0 1011215
09:00+20юз46610 0.0 10111253
12:00+23зюз57519 0.0 10111871
15:00+23зюз69506 0.0 10101730
18:00+21зюз496288 0.0 1010456
21:00+17в378329 0.0 1010177
19 мая, ср
ср1900:00+14юз2396100 0.6 100946
03:00+14зсз2594100 0.8 1009119
06:00+13юв31099100 10.4 1010527
09:00+13юз41096100 18.8 1013721
12:00+19юз914620 0.4 10141583
15:00+18юз914630 0.6 10151680
18:00+16юз7147074 0.0 10161244
21:00+15юз614685 0.0 10171036
20 мая, чт
чт2000:00+14юз513665 0.0 1016792
03:00+13юз411712 0.0 1016315
06:00+11ю23835 0.0 101658
09:00+18вюв225968 0.0 1016498
12:00+21всв3448100 0.0 10151045
15:00+23всв4551100 0.0 10141029
18:00+20всв41070100 0.0 1013464
21:00+16всв311825 0.0 1012226
21 мая, пт
пт2100:00+14в23950 0.0 101150
03:00+13юв11915 0.0 101012
06:00+14вюв118149 0.0 101018
09:00+23всв35533 0.0 1009237
12:00+29всв58490 0.0 1008585
15:00+30всв58562 0.0 1007636
18:00+26в49740 0.0 1007333
21:00+20в23943 0.0 100743
22 мая, сб
сб2200:00+18з129433 0.0 100711
03:00+16ююз11896 0.0 100711
06:00+18вюв1189100 0.0 100722
09:00+24ссз2275100 0.0 1007316
12:00+28ссз336346 0.0 1008564
15:00+29св2257100 0.0 1007692
18:00+28ссз1173100 0.0 100729
21:00+22в2294100 0.0 100741